MOST

Last updated on Sat Sep 13 2025 00:03:34 GMT+0000 (Coordinated Universal Time)

1 27843U 03031D 25255.48858157 .00000049 00000+0 42616-4 0 9991 2 27843 98.7089 262.0843 0009454 340.7501 19.3317 14.21232240151264
UTC large
Height (km)
Speed (km/s)
/
Latitude / Longitude
Inclination (degrees)
Orbital Period (minutes)
Azimuth
Elevation
Range (km)
Doppler Factor

Next 0 passes for location: London (51.5072 / 0.1276)

Sorry there are no passes over London.